Regional Weather Roundup
Issued by NWS Grand Forks, ND

Home | Current Version | Previous Version | Text Only | Print | Product List | Glossary Off
Versions: 1 2 3 4 5 6 7 8 9 10 11 12 13 14 15 16 17 18 19 20 21 22 23 24 25 26 27 28 29 30 31 32 33 34 35 36 37 38 39 40 41 42 43 44 45 46 47 48 49 50

009
ASUS43 KFGF 302331
RWRFGF
PRAIRIE TO PINES  WEATHER ROUNDUP
NATIONAL WEATHER SERVICE EASTERN NORTH DAKOTA/GRAND FORKS ND
600 PM CDT THU MAR 30 2017

 **SATELLITE DATA USED TO AUGMENT SKY COVER AT AUTOMATED STATIONS**
 *****  WEATHER ACROSS EASTERN NORTH DAKOTA  *****

CITY           SKY/WX    TMP DP  RH WIND       PRES   REMARKS
GRAND FORKS    FAIR      54  40  59 SE9       29.87R
GRAND FRKS AFB FAIR      53  38  57 S7        29.87R
DEVILS LAKE    FAIR      52  38  58 SE10      29.84R
FARGO          FAIR      56  35  45 NE7       29.84S
WAHPETON ARPT  FAIR      54  32  43 SE3       29.84S
$$

 ***** WEATHER ACROSS CENTRAL AND WESTERN NORTH DAKOTA  *****

CITY           SKY/WX    TMP DP  RH WIND       PRES   REMARKS
BISMARCK       CLOUDY    58  34  40 S9        29.79S
MINOT          CLOUDY    57  38  48 S13       29.77R
JAMESTOWN      FAIR      50  37  61 SE14      29.83R
MINOT AFB      FAIR      54  40  58 SE9       29.76R
GARRISON         N/A     55  35  47 S9        29.76R
WILLISTON      FAIR      63  41  44 SE8       29.69R
DICKINSON      FAIR      56  32  40 S16       29.72R
HETTINGER      FAIR      53  32  44 SE12      29.76R
$$

 *****  OTHER AIRPORT OBSERVATIONS IN OUR AREA  *****

CITY           SKY/WX    TMP DP  RH WIND       PRES   REMARKS
WALHALLA       NOT AVBL
GRAFTON AIRPOR MOCLDY    54  41  62 S8        29.90R
VALLEY CITY AR FAIR      50  37  62 S7G14     29.86R
CANDO          NOT AVBL
CAVALIER APRT  MOCLDY    52  43  71 SE7       29.86R
GWINNER        CLEAR     52  36  54 MISG      29.85R
SHEYENNE NWR     N/A     54  35  48 SE3       29.95S
ROLLA          FAIR      45  45 100 S9        29.83R
 ***** THE ABOVE OBSERVATIONS ARE NON NWS ARE NOT QUALITY
       CONTROLLED AND MAY MIS-REPORT RAIN FOR SNOW...
$$

  *****  WEATHER ACROSS NORTHERN MINNESOTA  *****

CITY           SKY/WX    TMP DP  RH WIND       PRES   REMARKS
FLAG ISLAND    FAIR      48  34  57 CALM      29.89R
WARROAD        FAIR      43  36  75 NE5       29.90S
ROSEAU         PTSUNNY   52  41  66 N3        29.89R
HALLOCK        PTSUNNY   52  43  71 S8        29.89R
THF RVR FALLS  FAIR      54  37  52 NE6       29.88S
BAUDETTE       FAIR      56  31  38 CALM      29.87R
WASKISH        FAIR      48  34  57 SW3       29.87S
CROOKSTON      FAIR      54  39  58 CALM      29.88R
STEPHEN NDAWN    N/A     52  41  66 S6          N/A
GREENBUSH NDAW   N/A     54  36  50 S2          N/A
$$
  *****  WEATHER ACROSS CENTRAL AND WEST MINNESOTA  *****

CITY           SKY/WX    TMP DP  RH WIND       PRES   REMARKS
FOSSTON        FAIR      61  34  36 E3        29.86S
BEMIDJI        FAIR      53  28  38 SE10      29.87R
PARK RAPIDS    FAIR      54  24  31 E10       29.84S
ELBOW LAKE     MOCLDY    50  34  54 SE8       29.84S
WADENA         FAIR      52  28  40 E8        29.84S
DETROIT LAKES  FAIR      54  28  37 E6        29.86R
MOORHEAD       FAIR      54  39  58 N7        29.86R
FERGUS FALLS   FAIR      54  30  40 E7        29.86S
MORRIS MN      CLOUDY    48  36  61 E8        29.83S
STAPLES        FAIR      52  27  37 NE5       29.84F
$$
  *****  WEATHER ELSEWHERE ACROSS MINNESOTA  *****

CITY           SKY/WX    TMP DP  RH WIND       PRES   REMARKS
DULUTH         FAIR      41  30  65 E15G24    29.90F
INTRNTL FALLS  FAIR      54  30  40 E9        29.89S
ELY            FAIR      48  25  40 SE6       29.91S
CLOQUET        PTSUNNY   41  28  60 E10       29.90R
WHEATON        FAIR      50  34  53 SE7       29.87R
BRAINERD       FAIR      52  29  41 NE8       29.85S
HIBBING        FAIR      50  17  27 E12       29.88S
ALEXANDRIA     PTSUNNY   49  32  52 E9        29.84S
SAINT CLOUD    PTSUNNY   49  34  56 E8        29.83S
MINNEAPOLIS    CLOUDY    48  33  56 NE14G22   29.81S
$$

  *****  WEATHER ACROSS SOUTH DAKOTA  *****

CITY           SKY/WX    TMP DP  RH WIND       PRES   REMARKS
SIOUX FALLS    CLOUDY    44  39  82 NE14      29.79S
BROOKINGS      CLOUDY    44  36  73 NE10      29.80R
WATERTOWN      CLOUDY    44  35  70 NE9       29.82S
HURON          CLOUDY    46  36  68 NE6       29.83R
SISSETON         N/A     49  37  63 SE8       29.84S
ABERDEEN       CLOUDY    47  32  56 E8        29.85R
MITCHELL       CLOUDY    47  36  65 NE12      29.82S
PIERRE         FAIR      46  34  62 SE7       29.80S
MOBRIDGE       FAIR      51  34  52 S9        29.79R
RAPID CITY     CLOUDY    53  35  50 SE9       29.71S
$$

  *****  SOME WEATHER IN NEARBY STATES *****

CITY           SKY/WX    TMP DP  RH WIND       PRES   REMARKS
GLASGOW MT     FAIR      62  29  28 NW12      29.70S
GREAT FALLS MT FAIR      57  23  26 NE10      29.73S
CHEYENNE WY    LGT RAIN  51  38  60 E14       29.69F
SCOTTSBLUFF NE CLOUDY    58  38  47 E12       29.67S
OMAHA NE       CLOUDY    44  38  79 N14       29.73R
DES MOINES IA  DRIZZLE   43  40  89 NE17      29.69R
DAVENPORT IA   LGT RAIN  42  40  92 NE12      29.62R
CHICAGO IL     CLOUDY    44  41  89 N13       29.61R
EAU CLAIRE WI  CLOUDY    45  35  68 NE9       29.81R
LA CROSSE WI   LGT RAIN  42  36  79 E9        29.78R
$$

  *****  SOME NATIONAL WEATHER *****

CITY           SKY/WX    TMP DP  RH WIND       PRES   REMARKS
LA GUARDIA NY  CLOUDY    47  27  45 S9        30.13F
RALEIGH NC     MOCLDY    65  47  52 SE7       30.00F
ATLANTA GA     CLOUDY    78  49  35 S12       29.80F
NEW ORLEANS LA FAIR      70  62  76 SW8       29.77R
OKLAHOMA CITY  FAIR      61  44  53 N13       29.73S
ALBUQUERQUE NM PTSUNNY   71  24  17 S15       29.74F
SALT LAKE CITY LGT RAIN  50  42  74 N13       29.57F
LOS ANGELES CA FAIR      66  55  67 W16       29.82F
BOISE ID       LGT RAIN  39  38  96 NW30G43   29.81R
SEATTLE WA     PTSUNNY   51  39  63 NE8       30.25R
$$

*** WEATHER ACROSS MANITOBA...SASKATCHEWAN AND ONTARIO ***
                ***ONTARIO***

CITY           SKY/WX    TMP DP  RH WIND       PRES   REMARKS
GERALDTON      PTSUNNY   45  21  39 E5        30.01S
THUNDER BAY    MOSUNNY   37  30  75 E10       30.02F
SIOUX LOOKOUT  CLOUDY    52  28  40 S3        29.91R
TORONTO        LGTSLEET  32  30  93 E12G20    30.05R WCI  23
BIG TROUT LK   NOT AVBL
PICKLE LAKE    CLOUDY    50  28  43 S7        29.91
DRYDEN         NOT AVBL
KENORA         PTSUNNY   48  34  57 SE3       29.91R
$$
                *** MANITOBA***

CITY           SKY/WX    TMP DP  RH WIND       PRES   REMARKS
BRANDON        CLOUDY    48  39  71 E7        29.83R
DAUPHIN        NOT AVBL
ISLAND LAKE    CLOUDY    37  34  87 N8        29.90R
PILOT MOUND      N/A     46  43  87 S8          N/A
THE PAS        CLOUDY    39  34  81 N3        29.94R
THOMPSON       PTSUNNY   37  27  65 NE8       29.96R
WINNIPEG       PTSUNNY   50  43  76 S10       29.88R
CHURCHILL      PTSUNNY   19  16  86 N13       30.10R WCI   7
GILLAM         PTSUNNY   32  21  64 NE15      29.98R WCI  22
$$
                ***SASKATCHEWAN***

CITY           SKY/WX    TMP DP  RH WIND       PRES   REMARKS
ESTEVAN        PTSUNNY   54  45  71 E12       29.75R
KINDERSLEY     MOSUNNY   46  36  66 NE22      29.84R
LLOYDMINSTER   LGT RAIN  41  37  87 N5        29.95R
PRINCE ALBERT  CLOUDY    45  32  61 NE7       29.93R
REGINA         CLOUDY    59  34  38 NE10      29.76R
YORKTON        CLOUDY    39  37  93 N14       29.84R
N. BATTLEFORD  CLOUDY    41  36  81 N6        29.95R
LA RONGE       CLOUDY    39  30  70 N5        29.98R
SASKATOON      CLOUDY    39  34  81 NE13G18   29.92R
SWIFT CURRENT  PTSUNNY   61  32  33 NE13      29.72R
$$
NOTE: THESE ARE AUTOMATED STATIONS WITH LIMITED QUALITY CONTROL
      "FAIR" INDICATES FEW OR NO CLOUDS BELOW 12,000 FEET WITH NO
      SIGNIFICANT WEATHER AND/OR OBSTRUCTIONS TO VISIBILITY.
      SKY/WX - SKY CONDITION AND SIGNIFICANT WEATHER.
      TMP - AIR TEMPERATURE.    DP   - DEWPOINT TEMPERATURE.
      RH  - RELATIVE HUMIDITY.  PRES - PRESSURE.
      HX  - HEAT INDEX.         WCI  - WIND CHILL INDEX.
$




USA.gov is the U.S. government's official web portal to all federal, state and local government web resources and services.